Flag for Canada Weather past 2 weeks in Mount Pearl, Newfoundland and Labrador, Canada

Now
30 °F

Light freezing rain. Ice fog.


Feels Like: 16 °F
Forecast: 26 / 33 °F
Wind: 25 mph from East

Location: St. John's

Current Time: Mar 29, 2015 at 5:22:14 AM

Latest Report: Mar 29, 2015 at 4:30 AM


Visibility: 0 mi

Pressure: 29.45 "Hg

Humidity: 100%

Dew point: 30 °F

Location of Mount PearlLocation

Historic Weather in Mount Pearl — Graph

°F

Mount Pearl temperature yesterday

Maximum temperature yesterday: 37 °F (at 10:30 AM)
Minimum temperature yesterday: 28 °F (at 5:30 PM)
Average temperature yesterday: 33 °F

Past Weeks' High & Low Weather Summary

 TemperatureHumidityPressure
High43 °F (Mar 22, 3:30 PM)100% (Mar 16, 4:30 AM)30.34 "Hg (Mar 16, 4:30 AM)
Low5 °F (Mar 14, 3:30 AM)51% (Mar 26, 1:30 PM)28.71 "Hg (Mar 19, 9:30 AM)
Average27 °F85%29.69 "Hg
* Reported Mar 14 3:30 AM — Mar 29 3:30 AM, Mount Pearl, Weather by CustomWeather, © 2015

Note: Actual official high and low records may vary slightly from our data, if they occured in-between our weather recording intervals... More about our weather records

Advertising

Mount Pearl weather history for previous 24 hours

 ConditionsComfort  
Time TempWeatherWind HumidityBarometerVisibility
3:30 AM
Sun, Mar 29
30 °FIce fog.18 mph100%29.51 "Hg0 mi
2:30 AM28 °FIce fog.15 mph100%29.55 "Hg0 mi
1:30 AM30 °FIce fog.9 mph100%29.63 "Hg0 mi
12:30 AM30 °FLight freezing rain. Ice fog.7 mph100%29.60 "Hg0 mi
11:30 PM
Sat, Mar 28
30 °FLight freezing rain. Ice fog.13 mph100%29.61 "Hg1 mi
10:30 PM30 °FLight freezing rain. Ice fog.10 mph100%29.62 "Hg1 mi
9:30 PM30 °FLight freezing rain. Ice fog.9 mph100%29.64 "Hg3 mi
8:30 PM30 °FLight snow. Ice fog.7 mph100%29.67 "Hg1 mi
7:30 PM28 °FLight snow. Ice fog.8 mph100%29.66 "Hg2 mi
6:30 PM28 °FSnow. Ice fog.8 mph100%29.69 "Hg1 mi
5:30 PM28 °FSnow. Ice fog.9 mph100%29.72 "Hg1 mi
4:30 PM30 °FIce fog.10 mph93%29.72 "Hg0 mi
3:30 PM32 °FIce fog.12 mph93%29.73 "Hg0 mi
2:30 PM34 °FMore clouds than sun.13 mph100%29.73 "Hg15 mi
1:30 PM36 °FLow clouds.10 mph93%29.75 "Hg15 mi
12:30 PM37 °FPartly sunny.7 mph93%29.75 "Hg15 mi
11:30 AM37 °FMostly cloudy.10 mph93%29.71 "Hg15 mi
10:30 AM37 °FMore clouds than sun.3 mph93%29.70 "Hg15 mi
9:30 AM34 °FLow clouds.5 mph100%29.70 "Hg15 mi
8:30 AM36 °FMore clouds than sun.8 mph100%29.65 "Hg15 mi
8:20 AM36 °FMore clouds than sun.7 mph100%29.65 "Hg15 mi
7:30 AM34 °FDrizzle. Fog.6 mph100%29.63 "Hg0 mi
6:30 AM32 °FDrizzle. Fog.6 mph100%29.61 "Hg0 mi
5:30 AM32 °FLight rain. Fog.3 mph100%29.57 "Hg0 mi
Weather by CustomWeather, © 2015

See weather overviewHow to use our weather pages